Previsão horária em Aalen

Hoje, 29 Outubro, Quinta-feira

Tempo Temperatura Precipitação Vento Pressão Humidade
00:00 +8°C° 0.5 mm 4 m/s 721 mmHg 91%
01:00 +8°C° 0.5 mm 4 m/s 721 mmHg 91%
02:00 +8°C° 0.2 mm 5 m/s 721 mmHg 90%
03:00 +8°C° 0.2 mm 5 m/s 721 mmHg 90%
04:00 +8°C° 0.2 mm 6 m/s 721 mmHg 90%
05:00 +8°C° 1.1 mm 6 m/s 721 mmHg 90%
06:00 +8°C° 1.1 mm 6 m/s 722 mmHg 91%
07:00 +8°C° 1.1 mm 6 m/s 722 mmHg 92%
08:00 +8°C° 0.7 mm 6 m/s 723 mmHg 91%
09:00 +8°C° 0.7 mm 6 m/s 723 mmHg 91%
10:00 +8°C° 0.7 mm 6 m/s 724 mmHg 90%
11:00 +8°C° 0.4 mm 6 m/s 724 mmHg 89%
12:00 +8°C° 0.4 mm 6 m/s 724 mmHg 89%
13:00 +8°C° 0.4 mm 7 m/s 724 mmHg 88%
14:00 +8°C° 0.3 mm 6 m/s 725 mmHg 88%
15:00 +8°C° 0.3 mm 6 m/s 725 mmHg 88%
16:00 +8°C° 0.3 mm 5 m/s 726 mmHg 87%
17:00 +8°C° 0.1 mm 5 m/s 726 mmHg 89%
18:00 +8°C° 0.1 mm 4 m/s 726 mmHg 91%
19:00 +8°C° 0.1 mm 4 m/s 727 mmHg 92%
20:00 +8°C° 0.1 mm 4 m/s 727 mmHg 93%
21:00 +9°C° 0.1 mm 3 m/s 727 mmHg 93%
22:00 +9°C° 0.1 mm 3 m/s 727 mmHg 94%
23:00 +9°C° 0.3 mm 3 m/s 727 mmHg 94%

Amanhã, 30 Outubro, Sexta-feira

Tempo Temperatura Precipitação Vento Pressão Humidade
00:00 +8°C° 0.3 mm 4 m/s 727 mmHg 94%
01:00 +8°C° 0.3 mm 4 m/s 726 mmHg 94%
02:00 +8°C° 0.3 mm 4 m/s 727 mmHg 94%
03:00 +9°C° 0.3 mm 5 m/s 727 mmHg 93%
04:00 +9°C° 0.3 mm 5 m/s 727 mmHg 93%
05:00 +9°C° 0 mm 5 m/s 727 mmHg 93%
06:00 +10°C° 0 mm 4 m/s 727 mmHg 93%
07:00 +10°C° 0 mm 4 m/s 727 mmHg 93%
08:00 +11°C° 0 mm 4 m/s 727 mmHg 91%
09:00 +10°C° 0 mm 5 m/s 727 mmHg 89%
10:00 +12°C° 0 mm 5 m/s 728 mmHg 87%
11:00 +12°C° 0 mm 5 m/s 727 mmHg 85%
12:00 +13°C° 0 mm 5 m/s 727 mmHg 82%
13:00 +13°C° 0 mm 5 m/s 727 mmHg 80%
14:00 +13°C° 0 mm 4 m/s 727 mmHg 81%
15:00 +13°C° 0 mm 4 m/s 727 mmHg 83%
16:00 +12°C° 0 mm 3 m/s 727 mmHg 84%
17:00 +12°C° 0 mm 3 m/s 727 mmHg 86%
18:00 +12°C° 0 mm 2 m/s 728 mmHg 88%
19:00 +10°C° 0 mm 2 m/s 728 mmHg 91%
20:00 +10°C° 0 mm 2 m/s 728 mmHg 92%
21:00 +10°C° 0 mm 2 m/s 728 mmHg 93%
22:00 +9°C° 0 mm 2 m/s 729 mmHg 94%
23:00 +9°C° 0 mm 2 m/s 728 mmHg 94%

Depois de amanhã, 31 Outubro, Sábado

Tempo Temperatura Precipitação Vento Pressão Humidade
00:00 +9°C° 0 mm 1 m/s 728 mmHg 93%
01:00 +9°C° 0 mm 1 m/s 728 mmHg 93%
02:00 +9°C° 0 mm 1 m/s 728 mmHg 93%
03:00 +9°C° 0 mm 1 m/s 728 mmHg 93%
04:00 +8°C° 0 mm 1 m/s 728 mmHg 93%
05:00 +8°C° 0 mm 1 m/s 728 mmHg 93%
06:00 +8°C° 0 mm 1 m/s 727 mmHg 93%
07:00 +8°C° 0 mm 1 m/s 727 mmHg 93%
08:00 +9°C° 0 mm 1 m/s 727 mmHg 90%
09:00 +11°C° 0 mm 1 m/s 727 mmHg 87%
10:00 +12°C° 0 mm 2 m/s 727 mmHg 83%
11:00 +13°C° 0 mm 2 m/s 727 mmHg 80%
12:00 +14°C° 0 mm 2 m/s 727 mmHg 77%
13:00 +15°C° 0 mm 2 m/s 726 mmHg 74%
14:00 +15°C° 0 mm 2 m/s 726 mmHg 77%
15:00 +14°C° 0 mm 2 m/s 726 mmHg 80%
16:00 +14°C° 0 mm 2 m/s 725 mmHg 83%
17:00 +13°C° 0 mm 2 m/s 725 mmHg 86%
18:00 +10°C° 0 mm 2 m/s 725 mmHg 89%
19:00 +10°C° 0 mm 1 m/s 725 mmHg 92%
20:00 +10°C° 0 mm 1 m/s 725 mmHg 92%
21:00 +10°C° 0 mm 1 m/s 725 mmHg 93%
22:00 +9°C° 0 mm 1 m/s 725 mmHg 93%
23:00 +9°C° 0 mm 1 m/s 725 mmHg 92%

1 Novembro, Domingo

Tempo Temperatura Precipitação Vento Pressão Humidade
00:00 +9°C° 0 mm 1 m/s 725 mmHg 91%
01:00 +9°C° 0 mm 1 m/s 725 mmHg 89%
02:00 +9°C° 0 mm 1 m/s 724 mmHg 89%
03:00 +9°C° 0 mm 1 m/s 724 mmHg 88%
04:00 +8°C° 0 mm 1 m/s 724 mmHg 87%
05:00 +8°C° 0 mm 1 m/s 724 mmHg 86%
06:00 +8°C° 0 mm 1 m/s 724 mmHg 85%
07:00 +8°C° 0 mm 1 m/s 724 mmHg 84%
08:00 +9°C° 0 mm 1 m/s 724 mmHg 80%
09:00 +10°C° 0 mm 2 m/s 724 mmHg 76%
10:00 +13°C° 0 mm 2 m/s 724 mmHg 72%
11:00 +14°C° 0 mm 2 m/s 724 mmHg 70%
12:00 +15°C° 0 mm 2 m/s 724 mmHg 67%
13:00 +16°C° 0 mm 2 m/s 724 mmHg 65%
14:00 +16°C° 0 mm 2 m/s 724 mmHg 68%
15:00 +15°C° 0 mm 2 m/s 723 mmHg 71%
16:00 +15°C° 0 mm 1 m/s 723 mmHg 74%
17:00 +14°C° 0 mm 2 m/s 723 mmHg 73%
18:00 +14°C° 0 mm 2 m/s 723 mmHg 73%
19:00 +14°C° 0 mm 2 m/s 723 mmHg 72%
20:00 +14°C° 0 mm 2 m/s 723 mmHg 70%
21:00 +14°C° 0 mm 2 m/s 723 mmHg 68%
22:00 +14°C° 0 mm 2 m/s 723 mmHg 66%
23:00 +14°C° 0 mm 2 m/s 723 mmHg 66%

2 Novembro, Segunda-feira

Tempo Temperatura Precipitação Vento Pressão Humidade
00:00 +14°C° 0 mm 2 m/s 723 mmHg 66%
01:00 +13°C° 0 mm 2 m/s 723 mmHg 65%
02:00 +13°C° 0 mm 2 m/s 722 mmHg 67%
03:00 +13°C° 0 mm 2 m/s 722 mmHg 68%
04:00 +13°C° 0 mm 2 m/s 722 mmHg 69%
05:00 +13°C° 0 mm 2 m/s 722 mmHg 70%
06:00 +13°C° 0 mm 2 m/s 722 mmHg 70%
07:00 +13°C° 0 mm 2 m/s 722 mmHg 70%
08:00 +14°C° 0 mm 2 m/s 722 mmHg 69%
09:00 +14°C° 0 mm 2 m/s 722 mmHg 68%
10:00 +15°C° 0 mm 2 m/s 722 mmHg 68%
11:00 +16°C° 0 mm 2 m/s 721 mmHg 66%
12:00 +17°C° 0 mm 2 m/s 721 mmHg 63%
13:00 +18°C° 0 mm 3 m/s 721 mmHg 61%
14:00 +18°C° 0 mm 2 m/s 721 mmHg 64%
15:00 +17°C° 0 mm 2 m/s 721 mmHg 67%
16:00 +16°C° 0 mm 2 m/s 721 mmHg 70%
17:00 +16°C° 0 mm 2 m/s 721 mmHg 69%
18:00 +15°C° 0 mm 2 m/s 721 mmHg 67%
19:00 +15°C° 0 mm 2 m/s 721 mmHg 66%
20:00 +14°C° 0 mm 2 m/s 721 mmHg 67%
21:00 +14°C° 0 mm 2 m/s 721 mmHg 69%
22:00 +13°C° 0 mm 1 m/s 721 mmHg 71%
23:00 +13°C° 0 mm 1 m/s 721 mmHg 69%

3 Novembro, Terça-feira

Tempo Temperatura Precipitação Vento Pressão Humidade
00:00 +13°C° 0 mm 1 m/s 722 mmHg 67%
01:00 +12°C° 0 mm 1 m/s 722 mmHg 64%
02:00 +12°C° 0 mm 1 m/s 722 mmHg 67%
03:00 +12°C° 0 mm 1 m/s 722 mmHg 70%
04:00 +12°C° 0 mm 1 m/s 722 mmHg 74%
05:00 +12°C° 0 mm 1 m/s 722 mmHg 77%
06:00 +12°C° 0 mm 1 m/s 723 mmHg 80%
07:00 +12°C° 0 mm 1 m/s 723 mmHg 83%
08:00 +12°C° 0 mm 1 m/s 723 mmHg 84%
09:00 +12°C° 0 mm 0 m/s 723 mmHg 85%
10:00 +13°C° 0 mm 0 m/s 723 mmHg 87%
11:00 +14°C° 0.1 mm 1 m/s 723 mmHg 88%
12:00 +14°C° 0.1 mm 1 m/s 723 mmHg 89%
13:00 +14°C° 0.1 mm 2 m/s 723 mmHg 90%
14:00 +14°C° 0 mm 2 m/s 723 mmHg 91%
15:00 +13°C° 0 mm 2 m/s 723 mmHg 92%
16:00 +13°C° 0 mm 2 m/s 723 mmHg 94%
17:00 +13°C° 0.1 mm 2 m/s 723 mmHg 95%
18:00 +12°C° 0.1 mm 2 m/s 723 mmHg 96%
19:00 +12°C° 0.1 mm 2 m/s 723 mmHg 97%
20:00 +12°C° 0.1 mm 1 m/s 723 mmHg 97%
21:00 +12°C° 0.1 mm 1 m/s 723 mmHg 98%
22:00 +12°C° 0.1 mm 1 m/s 723 mmHg 98%
23:00 +12°C° 0.1 mm 1 m/s 724 mmHg 98%
Mostrar mais